Regional Weather Roundup
Issued by NWS Newport/Morehead, NC

Current Version | Previous Version | Text Only | Print | Product List | Glossary Off
Versions: 1 2 3 4 5 6 7 8 9 10 11 12 13 14 15 16 17 18 19 20 21 22 23 24 25 26 27 28 29 30 31 32 33 34 35 36 37 38 39 40 41 42 43 44 45 46 47 48 49 50
000 ASUS42 KMHX 220713 RWRMHX WEATHER ROUNDUP FOR EASTERN NORTH CAROLINA NATIONAL WEATHER SERVICE NEWPORT/MOREHEAD CITY NC 300 AM EDT THU JUN 22 2017 NOTE: "FAIR" INDICATES FEW OR NO CLOUDS BELOW 12,000 FEET WITH NO SIGNIFICANT WEATHER AND/OR OBSTRUCTIONS TO VISIBILITY NCZ015>017-031-032-045>047-102-103-220800- NORTH COAST CITY SKY/WX TMP DP RH WIND PRES REMARKS EDENTON CLOUDY 76 73 88 CALM 30.06S ELIZABETH CITY MOCLDY 75 74 96 SW9 30.05S KITTY HAWK MOSUNNY 75 72 91 SW7 30.04F MANTEO PTCLDY 74 72 92 W8 30.06F $$ NCZ045>047-081-094-103-104-220800- CENTRAL COAST CITY SKY/WX TMP DP RH WIND PRES REMARKS FRISCO PTCLDY 77 74 90 W7 30.07S $$ NCZ095-097-098-100-101-220800- SOUTHERN COAST CITY SKY/WX TMP DP RH WIND PRES REMARKS BEAUFORT CLOUDY 78 78 100 SW9 30.08S CEDAR ISLAND NOT AVBL JACKSONVILLE PTCLDY 73 73 100 W3 30.07F PINEY ISLAND PTSUNNY N/A N/A N/A SW6 30.07F WILMINGTON PTCLDY 76 75 97 SW5 30.08S $$ NCZ011>013-027>030-043-044-078>080-089-090>093-098-220800- COASTAL PLAIN CITY SKY/WX TMP DP RH WIND PRES REMARKS AHOSKIE N/A 70 70 99 CALM 30.06S FOG CLINTON MOCLDY 73 73 100 SW3 30.09R ELIZABETHTOWN NOT AVBL GOLDSBORO MOCLDY 74 74 100 SW5 30.06S GREENVILLE MOCLDY 73 73 100 SW5 30.08S HAVELOCK MOCLDY 75 73 93 SW5 30.08F KENANSVILLE CLOUDY 73 72 94 SW5 30.09S KINSTON CLOUDY 74 73 96 SW6 30.08F NEW BERN CLOUDY 74 74 100 SW5 30.08F RICHLANDS PTCLDY 72 71 97 SW3 30.09S ROCKY MOUNT CLOUDY 73 72 96 SW6 30.07S WASHINGTON CLOUDY 73 72 97 SW6 30.07F WHITEVILLE CLOUDY 74 73 96 CALM 30.08S $$ AMZ130-135-150-152-154-156-158-170-250-252-270-ANZ085-086-088-633-658-670-220800- MARINE OBSERVATIONS STATION/POSITION TIME TEMP WIND PRES WAVE SWELL AIR SEA DIR/SP/G HT/PER HT/PER (UTC) (F) (DEG/KT/KT) (MB) (FT/S) (FT/S) CHESAPEAKE LIGHT NOT AVBL 64 E VA BEACH 0650 72 70 230/ 10/ 12 1017.4 3/ 5 2/ 7 DUCK 0636 240/ 13/ 16 1017.2 2 E DUCK NOT AVBL OREGON INLET 0636 240/ 10/ 13 1017.8 13E OREGON INLT 0648 71 N/A 3/ 4 2/ 7 HATTERAS CG 0636 240/ 8/ 11 1018.2 DIAMOND BUOY 0650 79 80 230/ 16/ 17 1018.1 3/ 7 2/ 7 CAPE LOOKOUT 0700 78 230/ 6/ 8 1018.3 BEAUFORT LAB 0636 230/ 3/ 6 1017.9 30 SE NEW RVR IN 0608 78 80 230/ 12/ 16 1018.9 30 SE NEW RVR IN 0643 80 N/A 3/ 6 27 SE WRIGHTSVLE 0608 78 79 210/ 10/ 14 1018.0 5 SE WRIGHTSVLE 0608 79 78 220/ 8/ 14 1018.7 225 S CAPE HAT 0650 81 82 200/ 14/ 16 1020.6 4/ 7 3/ 7 41 SE CHARLESTON 0650 80 81 210/ 10/ 12 1018.6 3/ 7 3/ 7 $$

USA.gov is the U.S. government's official web portal to all federal, state and local government web resources and services.